EW3049 Weather Reports


time (UTC)temp
C
wind
direction
speed
KPH
gust
KPH
rain 1hr
cm
rain 24hr
cm
rain mn
cm
humidity
%
barometer
mb
20260505223005 6 227 4.8 19.3 0.18 0.41 0.41 87 1004.5
20260505221505 5 235 4.8 14.5 0.15 0.38 0.38 87 1004.5
20260505220004 5 235 0.0 14.5 0.13 0.36 0.36 83 1004.8
20260505214504 7 231 6.4 20.9 0.03 0.25 0.25 77 1004.7
20260505213003 7 162 11.3 16.1 0.03 0.23 0.23 79 1004.0
20260505211503 7 234 8.0 19.3 0.18 0.23 0.23 81 1004.3
20260505210001 7 178 8.0 14.5 0.23 0.23 0.23 88 1004.8
20260505204550 5 179 1.6 14.5 0.23 0.23 0.23 88 1005.1
20260505203048 5 202 11.3 19.3 0.20 0.20 0.20 85 1005.4
20260505201544 8 193 12.9 20.9 0.08 0.08 0.08 69 1005.3
20260505200056 9 255 6.4 20.9 0.00 0.00 0.00 71 1004.0
20260505194544 11 200 11.3 20.9 0.00 0.00 0.00 56 1004.2
20260505193041 11 231 11.3 22.5 0.00 0.00 0.00 59 1003.8
20260505191546 12 181 12.9 32.2 0.00 0.00 0.00 52 1003.7
20260505190040 12 178 11.3 20.9 0.00 0.00 0.00 51 1004.0
20260505184529 12 359 14.5 25.7 0.00 0.00 0.00 51 1004.2
20260505183029 11 192 11.3 20.9 0.00 0.00 0.00 58 1004.2
20260505181521 10 156 11.3 20.9 0.00 0.00 0.00 65 1004.4
20260505180022 10 191 8.0 20.9 0.00 0.00 0.00 67 1004.7
20260505174515 9 239 11.3 19.3 0.00 0.00 0.00 71 1004.7
20260505173014 8 224 6.4 22.5 0.00 0.00 0.00 76 1004.9
20260505171512 8 192 11.3 20.9 0.00 0.00 0.00 74 1004.8
20260505170010 8 186 9.7 16.1 0.00 0.00 0.00 72 1004.5
20260505164605 8 190 8.0 17.7 0.00 0.00 0.00 72 1004.4
20260505163057 8 182 8.0 16.1 0.00 0.00 0.00 73 1004.3
20260505161604 8 250 9.7 25.7 0.00 0.00 0.00 74 1004.4
20260505153059 7 205 6.4 17.7 0.00 0.00 0.00 80 1004.3
20260505151551 6 205 9.7 20.9 0.00 0.00 0.00 82 1004.4
20260505124521 5 193 0.0 3.2 0.00 0.00 0.00 87 1003.4
20260505123016 5 193 1.6 8.0 0.00 0.00 0.00 86 1003.4
20260505121518 5 193 1.6 8.0 0.00 0.00 0.00 87 1003.4
20260505120028 5 193 4.8 8.0 0.00 0.00 0.00 87 1003.6
20260505114512 5 194 3.2 11.3 0.00 0.00 0.00 86 1003.9
20260505113009 5 194 3.2 16.1 0.00 0.00 0.00 85 1003.8
20260505111556 5 194 4.8 14.5 0.00 0.00 0.00 84 1004.2
20260505101551 6 219 8.0 17.7 0.00 0.00 0.00 76 1004.3
20260505100043 6 191 6.4 16.1 0.00 0.00 0.00 72 1004.2
20260505094541 7 229 1.6 12.9 0.00 0.00 0.00 69 1004.0
20260505093037 7 228 6.4 16.1 0.00 0.00 0.00 68 1004.1
20260505091524 7 170 8.0 20.9 0.00 0.00 0.00 68 1004.3
20260505090023 7 170 3.2 16.1 0.00 0.00 0.00 67 1004.6
20260505084524 7 170 1.6 16.1 0.00 0.00 0.00 66 1004.5
20260505083023 7 170 6.4 22.5 0.00 0.00 0.00 66 1004.7
20260505081518 8 177 6.4 12.9 0.00 0.00 0.00 65 1004.9
20260505080018 8 177 4.8 12.9 0.00 0.00 0.00 65 1004.7
20260505074517 8 198 6.4 17.7 0.00 0.00 0.00 64 1004.2
20260505073017 8 181 6.4 20.9 0.00 0.00 0.00 63 1003.9
20260505071513 8 189 11.3 19.3 0.00 0.00 0.00 62 1003.7
20260505070002 8 189 8.0 17.7 0.00 0.00 0.00 63 1003.7
20260505064600 8 181 3.2 17.7 0.00 0.00 0.00 63 1003.7
20260505063057 8 185 6.4 20.9 0.00 0.00 0.00 63 1003.8
20260505061555 8 188 6.4 17.7 0.00 0.00 0.00 62 1004.2
20260505060053 8 183 3.2 17.7 0.00 0.00 0.00 61 1004.2
20260505054551 9 170 8.0 19.3 0.00 0.00 0.00 60 1004.2
20260505053048 9 196 8.0 19.3 0.00 0.00 0.00 59 1004.6
20260505051530 9 214 4.8 22.5 0.00 0.00 0.00 57 1004.7
20260505041520 10 195 6.4 16.1 0.00 0.00 0.00 50 1004.0
20260505040013 10 170 3.2 12.9 0.00 0.00 0.00 50 1004.4
20260505034512 10 187 8.0 19.3 0.00 0.00 0.00 50 1004.2
20260505033013 10 170 9.7 19.3 0.00 0.00 0.00 50 1004.1
20260505031510 10 198 8.0 17.7 0.00 0.00 0.00 54 1003.8
20260505030010 10 199 9.7 16.1 0.00 0.00 0.00 54 1003.7
20260505024607 11 180 8.0 17.7 0.00 0.00 0.00 52 1003.6
20260505023102 11 206 11.3 24.1 0.00 0.00 0.00 50 1003.3
20260505021558 11 175 9.7 20.9 0.00 0.00 0.00 48 1003.4
20260505020057 11 359 9.7 20.9 0.00 0.00 0.00 46 1003.4
20260505014557 12 359 9.7 19.3 0.00 0.00 0.00 43 1003.7
20260505013121 12 216 11.3 20.9 0.00 0.00 0.00 41 1003.5
20260505011609 12 204 8.0 20.9 0.00 0.00 0.00 40 1003.4
20260505010110 12 174 12.9 22.5 0.00 0.00 0.00 38 1003.5
20260505004555 13 191 12.9 20.9 0.00 0.00 0.00 37 1003.5
20260505003043 13 170 9.7 17.7 0.00 0.00 0.00 37 1003.0
20260505001543 13 212 8.0 24.1 0.00 0.00 0.00 42 1003.4
20260505000054 13 156 12.9 25.7 0.00 0.00 0.00 39 1003.4
20260504234542 14 201 14.5 29.0 0.00 0.00 0.00 39 1003.5
20260504233044 14 222 12.9 25.7 0.00 0.00 0.00 36 1003.8
20260504231543 15 168 11.3 32.2 0.00 0.00 0.00 36 1003.5
20260504230041 15 359 14.5 25.7 0.00 0.00 0.00 32 1003.3
20260504224540 16 191 14.5 29.0 0.00 0.00 0.00 30 1003.4